SL-24 PLAT

Satellite information

Favourite Embed

Satellite Type and Status

DEBRISIN ORBIT

Key statistics

Satellite SL-24 PLAT at a glance.

Uptime

4098

Days in orbit

Revolutions

≈ 15.1

Per day

Orbit

SSO

Sun Synchronous Orbit

Inclination

98.1

Latest

Satellite identification and parameters

Extended collection of information and parameters for SL-24 PLAT.

Object identification

Identified? True

Debris? False

Object name: SL-24 PLAT

International designator: 2014-033AR

Object number (NORAD): 40049

Object ID (CCSDS): 40049

Country: COMMONWEALTH OF INDEPENDENT STATES (CIS)

Current information (Y/N): Y

RCS size: LARGE

Orbital parameters

Period: 95.626 minutes

Inclination: 98.076 deg

SMA: 6926.987 km

Apoapsis: 554.818 km

Periapsis: 542.886 km

RAAN: 228.4585 deg

Eccentricy: 0.00086124

Argument of periapsis: 120.7075 deg

Mean anomaly: 239.5 deg

Mean motion: 15.05865492 rev/day

Mean motion (dot): 0.00010803 rev/day2

B* drag term: 0.00074727749 1/REarth

Two-line elements (TLE)

Creation date: Sept. 7, 2025, 3:09 a.m.

Reference frame: TEME

Reference center: EARTH

Epoch: Sept. 6, 2025, 9:31 p.m. UTC

TLE line 0: 0 SL-24 PLAT

TLE line 1: 1 40049U 14033AR 25249.89721531 .00010803 00000-0 74728-3 0 9999

TLE line 2: 2 40049 98.0760 228.4585 0008612 120.7075 239.5000 15.05865492609517

Live tracking on map

Real-time ground track for satellite SL-24 PLAT.

In-orbit conjunctions

A list of the most updated potential collisions computed for object SL-24 PLAT.

Target Orbit TCA Probability of collision Miss distance Type
SCOUT X-4 DEB LEO 2025-07-23 13:10:45 0.000435101 275.0 (m) DEBRIS
COSMOS 2251 DEB LEO 2025-02-26 10:05:19 0.0002623065 649.0 (m) DEBRIS
COSMOS 2251 DEB LEO 2025-02-26 08:29:27 0.0007527223 969.0 (m) DEBRIS
ATLAS 2AS CENTAUR R/B MEO 2024-06-17 17:00:32 0.0001049621 831.0 (m) ROCKET BODY

Associated space launch

SL-24 PLAT was lifted into orbit during the mission ‘Dnepr 1 | Multipayload, 37 satellites.’, on board a Dnepr space rocket.

The launch took place on June 19, 2014, 7:11 p.m. from 370/13.

For more information about the launch, click the button.

Launch to space Dnepr 1 | Multipayload, 37 satellites.
Dnepr 1 | Multipayload, 37 satellites.

Agency: N/A

Status: Launch Successful

Launch date: June 19, 2014, 7:11 p.m. UTC

Rocket: Dnepr

Launch pad: 370/13

Location: Dombarovskiy, Russian Federation

...

Latest news about this satellite

There are no fresh news available about this satellite. Check back as we update our databases every day.


Newsletter sign-up

Weekly statistics, charts and insights to help you stay on top of the space industry.